GW7221 Weather Reports


Display with metric or nautical units.
time (UTC)temp
F
wind
direction
speed
MPH
gust
MPH
rain 1hr
in
rain 24hr
in
rain mn
in
humidity
%
barometer
mb
20260506133845 60 160 11.0 16.0 0.00 0.00 0.02 67 1028.1
20260506133351 60 187 9.0 14.0 0.00 0.00 0.02 70 1028.4
20260506132845 60 155 8.0 9.0 0.00 0.00 0.02 69 1028.4
20260506132347 60 184 9.0 11.0 0.00 0.00 0.02 67 1028.4
20260506131851 60 161 10.0 11.0 0.00 0.00 0.02 65 1028.4
20260506131345 61 147 7.0 11.0 0.00 0.00 0.02 64 1028.4
20260506130847 61 186 9.0 11.0 0.00 0.00 0.02 64 1028.4
20260506130346 61 204 10.0 16.0 0.00 0.00 0.02 64 1028.4
20260506125846 61 168 12.0 14.0 0.00 0.00 0.02 66 1028.1
20260506125345 61 146 9.0 14.0 0.00 0.00 0.02 69 1028.1
20260506124846 62 160 11.0 15.0 0.00 0.00 0.02 69 1028.1
20260506124345 62 186 10.0 14.0 0.00 0.00 0.02 69 1028.1
20260506123845 62 170 11.0 16.0 0.00 0.00 0.02 68 1028.1
20260506123346 62 163 9.0 15.0 0.00 0.00 0.02 67 1028.1
20260506122845 62 149 8.0 14.0 0.00 0.00 0.02 68 1028.1
20260506122345 62 121 8.0 11.0 0.00 0.00 0.02 69 1028.1
20260506121845 62 160 8.0 14.0 0.00 0.00 0.02 69 1027.8
20260506121346 62 154 9.0 16.0 0.00 0.00 0.02 71 1027.8
20260506120846 62 153 9.0 14.0 0.00 0.00 0.02 73 1027.8
20260506120346 62 156 9.0 14.0 0.00 0.00 0.02 74 1027.8
20260506115845 61 175 9.0 11.0 0.00 0.00 0.02 77 1027.8
20260506115346 61 151 8.0 16.0 0.00 0.00 0.02 80 1027.4
20260506114845 61 132 6.0 8.0 0.00 0.00 0.02 82 1027.8
20260506114345 61 161 5.0 10.0 0.00 0.00 0.02 81 1027.8
20260506113846 61 138 8.0 10.0 0.00 0.00 0.02 80 1027.8
20260506113346 61 151 11.0 15.0 0.00 0.00 0.02 80 1027.4
20260506112846 61 140 9.0 10.0 0.00 0.00 0.02 81 1027.4
20260506112346 61 181 10.0 16.0 0.00 0.00 0.02 81 1027.4
20260506111845 61 126 10.0 15.0 0.00 0.00 0.02 82 1027.4
20260506111346 61 162 7.0 14.0 0.00 0.00 0.02 82 1027.4
20260506110845 60 156 9.0 14.0 0.00 0.00 0.02 83 1027.4
20260506110345 61 166 12.0 15.0 0.00 0.00 0.02 82 1027.4
20260506105845 61 176 7.0 14.0 0.00 0.00 0.02 81 1027.1
20260506105345 61 126 10.0 13.0 0.00 0.00 0.02 82 1027.1
20260506104845 61 159 9.0 13.0 0.00 0.00 0.02 82 1027.1
20260506104345 61 153 7.0 10.0 0.00 0.00 0.02 82 1027.1
20260506103845 61 179 8.0 11.0 0.00 0.00 0.02 79 1027.1
20260506103345 61 154 7.0 11.0 0.00 0.00 0.02 82 1027.1
20260506102845 60 122 7.0 10.0 0.00 0.00 0.02 84 1027.1
20260506102346 60 161 3.0 5.0 0.00 0.00 0.02 83 1026.8
20260506101846 60 191 4.0 5.0 0.00 0.00 0.02 82 1026.8
20260506101345 60 189 3.0 5.0 0.00 0.00 0.02 81 1026.8
20260506100845 60 188 5.0 6.0 0.00 0.00 0.02 81 1026.8
20260506100347 60 170 3.0 5.0 0.00 0.00 0.02 81 1026.8
20260506095845 60 175 3.0 6.0 0.00 0.00 0.02 81 1026.8
20260506095346 60 166 3.0 6.0 0.00 0.00 0.02 81 1026.4
20260506094846 60 176 5.0 8.0 0.00 0.00 0.02 80 1026.8
20260506094346 60 174 6.0 9.0 0.00 0.00 0.02 80 1026.8
20260506093845 60 173 7.0 9.0 0.00 0.00 0.02 81 1026.8
20260506093345 60 177 8.0 11.0 0.00 0.00 0.02 79 1026.8
20260506092845 60 172 4.0 7.0 0.00 0.00 0.02 81 1026.4
20260506092345 60 185 5.0 6.0 0.00 0.00 0.02 82 1026.4
20260506091849 60 165 5.0 6.0 0.00 0.00 0.02 82 1026.1
20260506091345 60 186 2.0 6.0 0.00 0.00 0.02 82 1026.1
20260506090845 60 177 4.0 6.0 0.00 0.00 0.02 82 1026.4
20260506090346 60 186 3.0 5.0 0.00 0.00 0.02 82 1026.1
20260506085845 60 183 3.0 7.0 0.00 0.00 0.02 82 1026.1
20260506085346 60 185 4.0 7.0 0.00 0.00 0.02 81 1026.1
20260506084845 61 173 4.0 6.0 0.00 0.00 0.02 81 1026.1
20260506084345 60 168 5.0 7.0 0.00 0.00 0.02 82 1025.7
20260506083846 60 172 6.0 7.0 0.00 0.00 0.02 83 1025.7
20260506083345 61 176 3.0 8.0 0.00 0.00 0.02 81 1025.7
20260506082845 61 183 5.0 9.0 0.00 0.00 0.02 81 1025.7
20260506082345 61 198 6.0 9.0 0.00 0.00 0.02 81 1025.7
20260506081845 61 201 5.0 7.0 0.00 0.00 0.02 81 1025.7
20260506081345 61 182 5.0 8.0 0.00 0.00 0.02 80 1025.7
20260506080845 61 230 5.0 8.0 0.00 0.00 0.02 80 1025.4
20260506080345 61 190 6.0 10.0 0.00 0.00 0.02 81 1025.4
20260506073346 63 171 6.0 10.0 0.00 0.00 0.02 75 1025.1
20260506072847 63 162 7.0 10.0 0.00 0.00 0.02 74 1025.1
20260506072346 63 166 11.0 14.0 0.00 0.00 0.02 71 1025.1
20260506071845 63 176 10.0 14.0 0.00 0.00 0.02 76 1025.1
20260506071345 64 246 9.0 10.0 0.00 0.00 0.02 71 1025.1
20260506070845 64 159 7.0 11.0 0.00 0.00 0.02 70 1025.1
20260506070345 64 201 7.0 13.0 0.00 0.00 0.02 71 1025.1
20260506062345 66 163 8.0 13.0 0.00 0.00 0.02 70 1024.7
20260506061845 66 184 9.0 10.0 0.00 0.00 0.02 69 1024.7
20260506061345 65 187 8.0 13.0 0.00 0.00 0.02 71 1024.7
20260506060846 64 201 5.0 8.0 0.00 0.00 0.02 74 1024.7
20260506060345 64 169 5.0 7.0 0.00 0.00 0.02 73 1024.7
20260506051345 67 175 7.0 9.0 0.00 0.00 0.02 70 1024.4
20260506050846 67 187 5.0 10.0 0.00 0.00 0.02 71 1024.4
20260506050346 67 169 4.0 10.0 0.00 0.00 0.02 72 1024.4
20260506044845 66 243 6.0 10.0 0.00 0.00 0.02 72 1024.4
20260506044346 67 144 8.0 9.0 0.00 0.00 0.02 70 1024.4
20260506043845 66 215 6.0 9.0 0.00 0.00 0.02 71 1024.4
20260506043346 66 168 7.0 10.0 0.00 0.00 0.02 70 1024.4
20260506042846 66 184 7.0 9.0 0.00 0.00 0.02 71 1024.4
20260506042345 66 195 6.0 9.0 0.00 0.00 0.02 69 1024.4
20260506041845 66 182 6.0 11.0 0.00 0.00 0.02 69 1024.4
20260506041345 66 161 6.0 11.0 0.00 0.00 0.02 68 1024.4
20260506040418 65 201 5.0 8.0 0.00 0.00 0.02 72 1024.4
20260506035845 66 162 8.0 10.0 0.00 0.00 0.02 70 1024.4
20260506035346 66 213 6.0 9.0 0.00 0.00 0.02 71 1024.4
20260506034846 65 238 7.0 10.0 0.00 0.00 0.02 72 1024.4
20260506034345 64 207 8.0 13.0 0.00 0.00 0.02 75 1024.4
20260506033846 63 164 7.0 11.0 0.00 0.00 0.02 78 1024.7
20260506033346 63 192 6.0 13.0 0.00 0.00 0.02 81 1024.7
20260506032846 64 213 9.0 11.0 0.00 0.00 0.02 80 1024.4
20260506032346 65 169 6.0 15.0 0.00 0.00 0.02 77 1024.7
20260506031846 65 195 7.0 9.0 0.00 0.00 0.02 73 1024.7
20260506031345 65 206 10.0 11.0 0.00 0.00 0.02 71 1024.7
20260506030845 65 165 5.0 8.0 0.00 0.00 0.02 76 1025.1
20260506030346 65 181 7.0 10.0 0.00 0.00 0.02 74 1025.1
20260506025845 65 186 8.0 10.0 0.00 0.00 0.02 75 1025.1
20260506025345 65 165 5.0 11.0 0.00 0.00 0.02 75 1025.1
20260506024845 66 207 8.0 10.0 0.02 0.00 0.02 74 1025.1
20260506024346 65 202 9.0 13.0 0.02 0.00 0.02 73 1025.1
20260506023845 65 223 5.0 13.0 0.02 0.00 0.02 75 1025.4
20260506023345 65 179 8.0 14.0 0.02 0.00 0.02 74 1025.1
20260506022845 64 225 10.0 14.0 0.02 0.00 0.02 78 1025.1
20260506022346 63 241 7.0 11.0 0.02 0.00 0.02 79 1025.1
20260506021845 64 206 7.0 14.0 0.02 0.00 0.02 80 1025.1
20260506021345 63 234 7.0 10.0 0.02 0.00 0.02 82 1025.4
20260506020845 64 248 12.0 15.0 0.02 0.00 0.02 80 1025.4
20260506020345 63 206 5.0 11.0 0.02 0.00 0.02 84 1025.4
20260506015845 64 204 7.0 13.0 0.02 0.00 0.02 85 1025.4
20260506015345 63 237 6.0 9.0 0.01 0.00 0.02 84 1025.4
20260506014845 65 180 6.0 7.0 0.00 0.00 0.02 80 1025.4
20260506014345 66 258 3.0 7.0 0.00 0.00 0.00 74 1025.4
20260506013848 66 294 2.0 5.0 0.00 0.00 0.00 75 1025.1
20260506013345 66 200 4.0 7.0 0.00 0.00 0.00 73 1025.1
20260506012845 67 217 5.0 7.0 0.00 0.00 0.00 71 1025.4
20260506012345 69 273 4.0 6.0 0.00 0.00 0.00 68 1025.4
20260506011845 68 209 3.0 8.0 0.00 0.00 0.00 68 1025.1
20260506011353 68 319 3.0 6.0 0.00 0.00 0.00 68 1025.4
20260506010845 68 268 4.0 5.0 0.00 0.00 0.00 66 1025.1
20260506010345 68 243 2.0 3.0 0.00 0.00 0.00 69 1025.1
20260506005845 68 274 1.0 5.0 0.00 0.00 0.00 68 1025.1
20260506005345 67 290 3.0 3.0 0.00 0.00 0.00 70 1025.4
20260506004845 66 257 3.0 3.0 0.00 0.00 0.00 71 1025.1
20260506004346 65 268 3.0 3.0 0.00 0.00 0.00 73 1025.1
20260506003846 64 322 2.0 5.0 0.00 0.00 0.00 75 1025.1
20260506003345 64 315 3.0 3.0 0.00 0.00 0.00 74 1025.1
20260506002845 64 286 2.0 3.0 0.00 0.00 0.00 72 1025.4
20260506002345 64 273 2.0 3.0 0.00 0.00 0.00 73 1025.4
20260506001845 63 268 2.0 2.0 0.00 0.00 0.00 74 1025.4
20260506001345 62 245 1.0 2.0 0.00 0.00 0.00 76 1025.1
20260506000846 62 278 1.0 3.0 0.00 0.00 0.00 81 1025.4
20260506000346 62 269 3.0 6.0 0.00 0.00 0.00 81 1025.4
20260505235845 62 239 2.0 5.0 0.00 0.00 0.00 80 1025.4
20260505235345 64 220 4.0 8.0 0.00 0.00 0.00 77 1025.4
20260505234845 65 262 3.0 5.0 0.00 0.00 0.00 74 1025.1
20260505234345 64 226 2.0 3.0 0.00 0.00 0.00 77 1025.1
20260505233845 64 230 2.0 2.0 0.00 0.00 0.00 79 1025.4
20260505233346 64 292 2.0 3.0 0.00 0.00 0.00 77 1025.1
20260505232845 64 244 1.0 1.0 0.00 0.00 0.00 78 1025.1
20260505232345 64 225 2.0 2.0 0.00 0.00 0.00 78 1025.1
20260505231845 63 316 1.0 2.0 0.00 0.00 0.00 79 1025.1
20260505231345 63 321 2.0 3.0 0.00 0.00 0.00 79 1024.7
20260505230846 62 359 0.0 2.0 0.00 0.00 0.00 81 1024.7
20260505230346 62 11 1.0 1.0 0.00 0.00 0.00 84 1024.7
20260505225845 60 11 0.0 1.0 0.00 0.00 0.00 88 1024.7
20260505225347 59 11 0.0 1.0 0.00 0.00 0.00 90 1024.7
20260505224846 57 13 1.0 1.0 0.00 0.00 0.00 93 1024.7
20260505224346 56 4 0.0 1.0 0.00 0.00 0.00 93 1024.7
20260505223845 55 5 1.0 1.0 0.00 0.00 0.00 93 1024.4
20260505223346 54 6 0.0 0.0 0.00 0.00 0.00 93 1024.7
20260505222845 55 6 1.0 0.0 0.00 0.00 0.00 92 1024.4
20260505222346 55 6 0.0 0.0 0.00 0.00 0.00 92 1024.4
20260505221848 55 6 0.0 0.0 0.00 0.00 0.00 93 1024.7
20260505221345 55 7 1.0 1.0 0.00 0.00 0.00 93 1024.4
20260505220846 54 16 0.0 0.0 0.00 0.00 0.00 93 1024.4
20260505220345 53 16 0.0 0.0 0.00 0.00 0.00 92 1024.4
20260505215845 53 16 0.0 1.0 0.00 0.00 0.00 92 1024.4
20260505215351 54 17 0.0 0.0 0.00 0.00 0.00 92 1024.4
20260505214845 54 33 1.0 1.0 0.00 0.00 0.00 92 1024.4
20260505214345 54 33 0.0 0.0 0.00 0.00 0.00 92 1024.0
20260505213846 55 33 0.0 0.0 0.00 0.00 0.00 92 1024.0
20260505213346 55 33 0.0 0.0 0.00 0.00 0.00 92 1024.0
20260505212845 55 33 0.0 0.0 0.00 0.00 0.00 92 1024.0
20260505212346 55 33 0.0 0.0 0.00 0.00 0.00 92 1024.0
20260505211845 55 33 0.0 0.0 0.00 0.00 0.00 92 1024.0
20260505211345 55 34 0.0 0.0 0.00 0.00 0.00 91 1024.0
20260505210846 55 34 0.0 0.0 0.00 0.00 0.00 91 1023.7
20260505210345 56 340 0.0 0.0 0.00 0.00 0.00 91 1024.0
20260505205845 56 340 0.0 0.0 0.00 0.00 0.00 91 1024.0
20260505205345 56 340 0.0 0.0 0.00 0.00 0.00 91 1024.0
20260505204845 56 340 0.0 0.0 0.00 0.00 0.00 91 1024.0
20260505204345 57 340 1.0 1.0 0.00 0.00 0.00 91 1023.7
20260505203845 57 341 1.0 1.0 0.00 0.00 0.00 91 1023.7
20260505203347 57 276 0.0 0.0 0.00 0.00 0.00 92 1023.7
20260505202846 57 276 0.0 0.0 0.00 0.00 0.00 92 1023.7
20260505202345 57 276 0.0 0.0 0.00 0.00 0.00 92 1023.7
20260505201848 57 275 0.0 2.0 0.00 0.00 0.00 93 1023.7
20260505201346 57 303 0.0 0.0 0.00 0.00 0.00 93 1023.7
20260505200845 56 303 1.0 2.0 0.00 0.00 0.00 93 1023.7
20260505200346 56 272 0.0 0.0 0.00 0.00 0.00 93 1023.7
20260505195846 55 271 0.0 2.0 0.00 0.00 0.00 93 1023.7
20260505195345 55 283 1.0 1.0 0.00 0.00 0.00 93 1023.7
20260505194846 54 283 0.0 0.0 0.00 0.00 0.00 93 1024.0
20260505194345 54 282 0.0 1.0 0.00 0.00 0.00 93 1023.7
20260505193846 54 283 0.0 0.0 0.00 0.00 0.00 93 1023.7
20260505193346 54 282 0.0 0.0 0.00 0.00 0.00 93 1023.7
20260505192847 53 282 0.0 0.0 0.00 0.00 0.00 93 1023.7
20260505192346 53 282 0.0 0.0 0.00 0.00 0.00 92 1023.7
20260505191846 53 282 0.0 0.0 0.00 0.00 0.00 92 1023.7
20260505191346 53 282 0.0 0.0 0.00 0.00 0.00 93 1023.4
20260505190847 52 282 0.0 1.0 0.00 0.00 0.00 93 1023.7
20260505190347 52 282 0.0 0.0 0.00 0.00 0.00 92 1023.4
20260505185845 52 283 0.0 0.0 0.00 0.00 0.00 92 1023.4
20260505185346 51 283 0.0 0.0 0.00 0.00 0.00 91 1023.4
20260505184845 52 282 0.0 0.0 0.00 0.00 0.00 91 1023.4
20260505184345 52 282 0.0 0.0 0.00 0.00 0.00 91 1023.4
20260505183846 52 283 0.0 0.0 0.00 0.00 0.00 91 1023.4
20260505183345 53 283 0.0 0.0 0.00 0.00 0.00 90 1023.4
20260505182847 53 282 0.0 0.0 0.00 0.00 0.00 90 1023.7
20260505182345 53 282 0.0 0.0 0.00 0.00 0.00 90 1023.4
20260505181846 53 282 0.0 1.0 0.00 0.00 0.00 90 1023.4
20260505181348 54 283 0.0 1.0 0.00 0.00 0.00 90 1023.4
20260505180846 54 282 0.0 1.0 0.00 0.00 0.00 89 1023.7
20260505180345 54 290 0.0 0.0 0.00 0.00 0.00 89 1023.7
20260505175845 55 290 0.0 0.0 0.00 0.00 0.00 88 1023.7
20260505175345 55 291 0.0 0.0 0.00 0.00 0.00 88 1023.7
20260505174845 56 291 0.0 1.0 0.00 0.00 0.00 87 1023.7
20260505174345 57 290 0.0 1.0 0.00 0.00 0.00 87 1023.7
20260505173845 57 299 1.0 2.0 0.00 0.00 0.00 87 1023.7
20260505173345 57 264 1.0 1.0 0.00 0.00 0.00 86 1023.7
20260505172847 57 264 1.0 1.0 0.00 0.00 0.00 86 1023.7
20260505172345 58 264 0.0 0.0 0.00 0.00 0.00 86 1023.7
20260505171845 58 264 0.0 1.0 0.00 0.00 0.00 85 1023.7
20260505171346 58 264 0.0 0.0 0.00 0.00 0.00 85 1023.7
20260505170846 58 266 1.0 1.0 0.00 0.00 0.00 85 1024.0
20260505170345 58 273 1.0 1.0 0.00 0.00 0.00 84 1024.0
20260505165845 58 274 1.0 2.0 0.00 0.00 0.00 84 1024.0
20260505165345 58 267 2.0 5.0 0.00 0.00 0.00 85 1024.0
20260505164845 58 287 5.0 6.0 0.00 0.00 0.00 86 1024.4
20260505164346 58 263 3.0 5.0 0.00 0.00 0.00 87 1024.0
20260505163846 59 274 2.0 5.0 0.00 0.00 0.00 88 1024.0
20260505163346 59 278 2.0 6.0 0.00 0.00 0.00 88 1024.0
20260505162845 59 259 2.0 5.0 0.00 0.00 0.00 88 1024.0
20260505162345 58 269 3.0 3.0 0.00 0.00 0.00 87 1024.0
20260505161845 58 267 2.0 2.0 0.00 0.00 0.00 87 1024.4
20260505161347 58 305 0.0 0.0 0.00 0.00 0.00 87 1024.4
20260505160846 58 305 0.0 0.0 0.00 0.00 0.00 87 1024.4
20260505160346 57 305 0.0 0.0 0.00 0.00 0.00 87 1024.0
20260505153345 57 305 0.0 0.0 0.00 0.00 0.00 88 1024.4
20260505152846 57 305 0.0 0.0 0.00 0.00 0.00 88 1024.0
20260505152345 57 305 0.0 0.0 0.00 0.00 0.00 88 1024.0
20260505151846 57 305 0.0 0.0 0.00 0.00 0.00 88 1024.0
20260505151346 57 305 0.0 0.0 0.00 0.00 0.00 88 1024.4
20260505150845 57 305 0.0 0.0 0.00 0.00 0.00 88 1024.4
20260505150346 57 305 0.0 0.0 0.00 0.00 0.00 87 1024.4
20260505140346 58 305 1.0 1.0 0.00 0.00 0.00 85 1024.4